Flag for Hong Kong Weather past 2 weeks in Hong Kong, Hong Kong

Now
63 °F

Scattered clouds.


Feels Like: 63 °F
Forecast: 58 / 68 °F
Wind: 9 mph from Northeast

Location: National Airport

Current Time: Jan 31, 2015 at 3:14:45 PM

Latest Report: Jan 31, 2015 at 2:30 PM


Visibility: N/A

Pressure: 30.27 "Hg

Humidity: 68%

Dew point: 52 °F

Location of Hong KongLocation

Historic Weather in Hong Kong — Graph

°F

Hong Kong temperature yesterday

Maximum temperature yesterday: 66 °F (at 2:30 PM)
Minimum temperature yesterday: 61 °F (at 4:00 AM)
Average temperature yesterday: 63 °F

Past Weeks' High & Low Weather Summary

 TemperatureHumidityPressure
High73 °F (Jan 22, 1:00 PM)88% (Jan 26, 4:00 AM)30.36 "Hg (Jan 26, 4:00 AM)
Low54 °F (Jan 19, 6:30 AM)22% (Jan 22, 1:30 PM)29.98 "Hg (Jan 27, 3:00 PM)
Average64 °F62%30.13 "Hg
* Reported Jan 16 2:00 PM — Jan 31 2:00 PM, Hong Kong, Weather by CustomWeather, © 2014

Note: Actual official high and low records may vary slightly from our data, if they occured in-between our weather recording intervals... More about our weather records

Advertising

Hong Kong weather history for previous 24 hours

 ConditionsComfort  
Time TempWeatherWind HumidityBarometerVisibility
2:00 PM
Jan 31
63 °FScattered clouds.9 mph68%30.27 "HgN/A
1:30 PM63 °FScattered clouds.12 mph68%30.30 "HgN/A
1:00 PM63 °FScattered clouds.10 mph68%30.30 "HgN/A
12:30 PM63 °FScattered clouds.9 mph68%30.33 "HgN/A
12:00 PM61 °FScattered clouds.9 mph72%30.33 "HgN/A
11:00 AM61 °FScattered clouds.8 mph72%30.36 "HgN/A
10:30 AM59 °FScattered clouds.9 mph77%30.36 "Hg6 mi
10:00 AM59 °FScattered clouds.9 mph77%30.36 "Hg6 mi
9:30 AM59 °FScattered clouds.9 mph77%30.33 "Hg5 mi
9:00 AM59 °FScattered clouds.9 mph77%30.33 "Hg5 mi
8:30 AM57 °FScattered clouds.8 mph82%30.30 "Hg5 mi
8:00 AM57 °FScattered clouds.7 mph82%30.30 "Hg4 mi
7:30 AM57 °FScattered clouds.8 mph88%30.27 "Hg4 mi
7:00 AM57 °FPassing clouds.6 mph88%30.27 "Hg4 mi
6:30 AM57 °FPassing clouds.7 mph88%30.24 "Hg4 mi
6:00 AM57 °FLight rain. Passing clouds.7 mph88%30.24 "Hg4 mi
5:30 AM57 °FLight rain. Passing clouds.8 mph88%30.24 "Hg4 mi
5:00 AM59 °FPassing clouds.10 mph77%30.21 "Hg4 mi
4:30 AM61 °FPassing clouds.9 mph72%30.21 "Hg5 mi
4:00 AM63 °FPassing clouds.6 mph68%30.21 "Hg5 mi
3:30 AM61 °FPassing clouds.6 mph72%30.21 "Hg5 mi
3:00 AM61 °FPassing clouds.6 mph77%30.21 "Hg4 mi
2:30 AM61 °FPassing clouds.3 mph77%30.21 "Hg4 mi
2:00 AM61 °FPassing clouds.2 mph77%30.21 "Hg4 mi
1:30 AM61 °FPassing clouds.3 mph77%30.21 "Hg4 mi
1:00 AM61 °FPassing clouds.5 mph72%30.24 "Hg4 mi
12:30 AM63 °FPassing clouds.12 mph68%30.24 "Hg5 mi
12:00 AM61 °FClear.3 mph72%30.24 "Hg5 mi
11:30 PM
Jan 30
61 °FClear.9 mph72%30.24 "Hg5 mi
11:00 PM63 °FClear.14 mph68%30.24 "Hg5 mi
10:30 PM63 °FClear.15 mph68%30.24 "Hg5 mi
10:00 PM63 °FClear.15 mph68%30.21 "Hg5 mi
9:30 PM63 °FClear.15 mph68%30.21 "Hg5 mi
9:00 PM64 °FClear.14 mph64%30.21 "Hg5 mi
8:30 PM64 °FClear.7 mph60%30.21 "Hg5 mi
8:00 PM64 °FClear.10 mph64%30.21 "Hg4 mi
7:30 PM64 °FClear.12 mph64%30.18 "Hg4 mi
7:00 PM64 °FClear.12 mph64%30.18 "Hg4 mi
6:30 PM64 °FClear.8 mph64%30.18 "Hg4 mi
6:00 PM64 °FPassing clouds.10 mph64%30.18 "Hg3 mi
5:30 PM66 °FPassing clouds.10 mph56%30.15 "Hg3 mi
5:00 PM66 °FPassing clouds.9 mph56%30.15 "Hg3 mi
4:30 PM66 °FScattered clouds.10 mph56%30.15 "Hg3 mi
4:00 PM66 °FScattered clouds.12 mph60%30.15 "Hg3 mi
3:30 PM66 °FScattered clouds.8 mph60%30.15 "Hg3 mi
3:00 PM66 °FScattered clouds.9 mph60%30.15 "Hg3 mi
Weather by CustomWeather, © 2014

See weather overviewHow to use our weather pages